| time (UTC) | temp F | wind direction | speed MPH | gust MPH | rain 1hr in | rain 24hr in | rain mn in | humidity % | barometer mb |
| 20260502201705 | 71 | 101 | 2.0 | 6.0 | 0.00 | 0.00 | 0.00 | 13 | 1019.8 |
| 20260502201205 | 71 | 61 | 2.0 | 5.0 | 0.00 | 0.00 | 0.00 | 14 | 1019.8 |
| 20260502200705 | 71 | 46 | 2.0 | 3.0 | 0.00 | 0.00 | 0.00 | 14 | 1019.8 |
| 20260502200205 | 71 | 189 | 3.0 | 7.0 | 0.00 | 0.00 | 0.00 | 14 | 1019.9 |
| 20260502195705 | 71 | 88 | 2.0 | 5.0 | 0.00 | 0.00 | 0.00 | 16 | 1020.0 |
| 20260502195205 | 71 | 269 | 1.0 | 3.0 | 0.00 | 0.00 | 0.00 | 15 | 1020.0 |
| 20260502194705 | 70 | 208 | 1.0 | 5.0 | 0.00 | 0.00 | 0.00 | 15 | 1020.0 |
| 20260502194205 | 70 | 165 | 2.0 | 8.0 | 0.00 | 0.00 | 0.00 | 16 | 1020.2 |
| 20260502193705 | 69 | 8 | 3.0 | 7.0 | 0.00 | 0.00 | 0.00 | 15 | 1020.2 |
| 20260502193205 | 70 | 54 | 2.0 | 7.0 | 0.00 | 0.00 | 0.00 | 16 | 1020.2 |
| 20260502192705 | 69 | 94 | 2.0 | 6.0 | 0.00 | 0.00 | 0.00 | 16 | 1020.3 |
| 20260502192205 | 69 | 42 | 1.0 | 7.0 | 0.00 | 0.00 | 0.00 | 17 | 1020.3 |
| 20260502191705 | 69 | 192 | 2.0 | 6.0 | 0.00 | 0.00 | 0.00 | 19 | 1020.4 |
| 20260502191205 | 68 | 164 | 2.0 | 5.0 | 0.00 | 0.00 | 0.00 | 20 | 1020.5 |
| 20260502190705 | 68 | 150 | 5.0 | 8.0 | 0.00 | 0.00 | 0.00 | 16 | 1020.6 |
| 20260502190205 | 68 | 214 | 2.0 | 3.0 | 0.00 | 0.00 | 0.00 | 19 | 1020.6 |
| 20260502185705 | 67 | 38 | 1.0 | 7.0 | 0.00 | 0.00 | 0.00 | 19 | 1020.7 |
| 20260502185205 | 67 | 2 | 2.0 | 8.0 | 0.00 | 0.00 | 0.00 | 18 | 1020.8 |
| 20260502184705 | 66 | 218 | 1.0 | 3.0 | 0.00 | 0.00 | 0.00 | 19 | 1020.8 |
| 20260502184205 | 66 | 101 | 1.0 | 3.0 | 0.00 | 0.00 | 0.00 | 17 | 1021.0 |
| 20260502183705 | 66 | 34 | 1.0 | 3.0 | 0.00 | 0.00 | 0.00 | 17 | 1021.0 |
| 20260502182705 | 66 | 100 | 1.0 | 7.0 | 0.00 | 0.00 | 0.00 | 20 | 1021.2 |
| 20260502182205 | 66 | 97 | 3.0 | 7.0 | 0.00 | 0.00 | 0.00 | 19 | 1021.2 |
| 20260502181705 | 66 | 26 | 2.0 | 6.0 | 0.00 | 0.00 | 0.00 | 19 | 1021.2 |
| 20260502181205 | 66 | 84 | 1.0 | 6.0 | 0.00 | 0.00 | 0.00 | 17 | 1021.3 |
| 20260502180705 | 66 | 182 | 2.0 | 5.0 | 0.00 | 0.00 | 0.00 | 20 | 1021.4 |
| 20260502180204 | 66 | 89 | 3.0 | 6.0 | 0.00 | 0.00 | 0.00 | 19 | 1021.4 |
| 20260502170205 | 64 | 178 | 2.0 | 6.0 | 0.00 | 0.00 | 0.00 | 21 | 1021.9 |
| 20260502163705 | 63 | 188 | 2.0 | 5.0 | 0.00 | 0.00 | 0.00 | 21 | 1021.9 |
| 20260502163204 | 62 | 103 | 0.0 | 3.0 | 0.00 | 0.00 | 0.00 | 22 | 1022.0 |
| 20260502162704 | 62 | 49 | 1.0 | 3.0 | 0.00 | 0.00 | 0.00 | 22 | 1022.0 |
| 20260502162205 | 61 | 44 | 2.0 | 6.0 | 0.00 | 0.00 | 0.00 | 22 | 1022.1 |
| 20260502161205 | 61 | 18 | 0.0 | 3.0 | 0.00 | 0.00 | 0.00 | 23 | 1022.1 |
| 20260502160705 | 61 | 15 | 1.0 | 7.0 | 0.00 | 0.00 | 0.00 | 23 | 1022.1 |
| 20260502160204 | 61 | 46 | 2.0 | 6.0 | 0.00 | 0.00 | 0.00 | 22 | 1022.1 |
| 20260502152205 | 57 | 185 | 2.0 | 3.0 | 0.00 | 0.00 | 0.00 | 28 | 1022.5 |
| 20260502151705 | 56 | 185 | 0.0 | 2.0 | 0.00 | 0.00 | 0.00 | 32 | 1022.5 |
| 20260502151205 | 55 | 185 | 0.0 | 1.0 | 0.00 | 0.00 | 0.00 | 34 | 1022.6 |
| 20260502150705 | 55 | 185 | 1.0 | 3.0 | 0.00 | 0.00 | 0.00 | 34 | 1022.6 |
| 20260502150205 | 54 | 185 | 1.0 | 3.0 | 0.00 | 0.00 | 0.00 | 37 | 1022.7 |
| 20260502130704 | 37 | 185 | 0.0 | 0.0 | 0.00 | 0.00 | 0.00 | 66 | 1022.7 |
| 20260502130204 | 37 | 185 | 0.0 | 0.0 | 0.00 | 0.00 | 0.00 | 66 | 1022.7 |
| 20260502123705 | 37 | 185 | 0.0 | 0.0 | 0.00 | 0.00 | 0.00 | 63 | 1022.6 |
| 20260502122705 | 37 | 185 | 0.0 | 0.0 | 0.00 | 0.00 | 0.00 | 62 | 1022.5 |
| 20260502122205 | 38 | 185 | 0.0 | 0.0 | 0.00 | 0.00 | 0.00 | 60 | 1022.4 |
| 20260502121705 | 38 | 185 | 0.0 | 0.0 | 0.00 | 0.00 | 0.00 | 60 | 1022.4 |
| 20260502121205 | 38 | 185 | 0.0 | 0.0 | 0.00 | 0.00 | 0.00 | 59 | 1022.4 |
| 20260502120705 | 38 | 185 | 0.0 | 0.0 | 0.00 | 0.00 | 0.00 | 59 | 1022.3 |
| 20260502120204 | 39 | 185 | 0.0 | 0.0 | 0.00 | 0.00 | 0.00 | 58 | 1022.3 |
| 20260502115705 | 39 | 185 | 0.0 | 0.0 | 0.00 | 0.00 | 0.00 | 57 | 1022.3 |
| 20260502115204 | 39 | 185 | 0.0 | 0.0 | 0.00 | 0.00 | 0.00 | 57 | 1022.3 |
| 20260502114205 | 39 | 185 | 0.0 | 0.0 | 0.00 | 0.00 | 0.00 | 57 | 1022.2 |
| 20260502113704 | 40 | 185 | 0.0 | 0.0 | 0.00 | 0.00 | 0.00 | 56 | 1022.2 |
| 20260502113204 | 40 | 185 | 0.0 | 1.0 | 0.00 | 0.00 | 0.00 | 55 | 1022.2 |
| 20260502112704 | 40 | 185 | 0.0 | 0.0 | 0.00 | 0.00 | 0.00 | 54 | 1022.2 |
| 20260502111205 | 41 | 185 | 0.0 | 0.0 | 0.00 | 0.00 | 0.00 | 53 | 1022.0 |
| 20260502110704 | 41 | 185 | 0.0 | 0.0 | 0.00 | 0.00 | 0.00 | 52 | 1021.9 |
| 20260502110204 | 41 | 185 | 0.0 | 0.0 | 0.00 | 0.00 | 0.00 | 52 | 1021.9 |
| 20260502105704 | 41 | 185 | 0.0 | 0.0 | 0.00 | 0.00 | 0.00 | 52 | 1022.0 |
| 20260502105205 | 41 | 185 | 0.0 | 0.0 | 0.00 | 0.00 | 0.00 | 52 | 1022.0 |
| 20260502104205 | 41 | 185 | 0.0 | 0.0 | 0.00 | 0.00 | 0.00 | 51 | 1022.0 |
| 20260502103705 | 42 | 185 | 0.0 | 0.0 | 0.00 | 0.00 | 0.00 | 51 | 1022.0 |
| 20260502103205 | 42 | 185 | 0.0 | 0.0 | 0.00 | 0.00 | 0.00 | 51 | 1022.0 |
| 20260502102704 | 42 | 185 | 0.0 | 0.0 | 0.00 | 0.00 | 0.00 | 51 | 1022.0 |
| 20260502102204 | 42 | 185 | 0.0 | 0.0 | 0.00 | 0.00 | 0.00 | 51 | 1022.0 |
| 20260502100704 | 42 | 185 | 0.0 | 1.0 | 0.00 | 0.00 | 0.00 | 52 | 1021.8 |
| 20260502100204 | 42 | 184 | 0.0 | 0.0 | 0.00 | 0.00 | 0.00 | 52 | 1021.8 |
| 20260502091204 | 42 | 215 | 0.0 | 3.0 | 0.00 | 0.00 | 0.00 | 54 | 1021.8 |
| 20260502090704 | 42 | 184 | 0.0 | 0.0 | 0.00 | 0.00 | 0.00 | 54 | 1021.8 |
| 20260502090204 | 42 | 184 | 0.0 | 0.0 | 0.00 | 0.00 | 0.00 | 54 | 1021.8 |
| 20260502071204 | 43 | 205 | 0.0 | 2.0 | 0.00 | 0.00 | 0.00 | 55 | 1022.2 |
| 20260502070703 | 43 | 205 | 0.0 | 0.0 | 0.00 | 0.00 | 0.00 | 55 | 1022.2 |
| 20260502070204 | 43 | 205 | 0.0 | 0.0 | 0.00 | 0.00 | 0.00 | 55 | 1022.2 |
| 20260502065704 | 43 | 205 | 0.0 | 0.0 | 0.00 | 0.00 | 0.00 | 55 | 1022.2 |
| 20260502065204 | 43 | 205 | 0.0 | 0.0 | 0.00 | 0.00 | 0.00 | 54 | 1022.2 |
| 20260502064705 | 44 | 205 | 0.0 | 0.0 | 0.00 | 0.00 | 0.00 | 53 | 1022.3 |
| 20260502064204 | 44 | 205 | 0.0 | 0.0 | 0.00 | 0.00 | 0.00 | 53 | 1022.3 |
| 20260502063704 | 44 | 205 | 0.0 | 0.0 | 0.00 | 0.00 | 0.00 | 53 | 1022.3 |
| 20260502062703 | 45 | 205 | 0.0 | 0.0 | 0.00 | 0.00 | 0.00 | 52 | 1022.2 |
| 20260502061203 | 45 | 205 | 0.0 | 0.0 | 0.00 | 0.00 | 0.00 | 51 | 1022.2 |
| 20260502060705 | 46 | 205 | 0.0 | 0.0 | 0.00 | 0.00 | 0.00 | 51 | 1022.2 |
| 20260502060204 | 46 | 205 | 0.0 | 0.0 | 0.00 | 0.00 | 0.00 | 51 | 1022.2 |
| 20260502055704 | 46 | 205 | 0.0 | 0.0 | 0.00 | 0.00 | 0.00 | 51 | 1022.2 |
| 20260502054703 | 46 | 205 | 0.0 | 0.0 | 0.00 | 0.00 | 0.00 | 50 | 1022.2 |
| 20260502054204 | 47 | 205 | 0.0 | 0.0 | 0.00 | 0.00 | 0.00 | 50 | 1022.1 |
| 20260502053704 | 47 | 205 | 0.0 | 0.0 | 0.00 | 0.00 | 0.00 | 50 | 1022.2 |
| 20260502052204 | 47 | 205 | 0.0 | 0.0 | 0.00 | 0.00 | 0.00 | 50 | 1022.1 |
| 20260502051704 | 47 | 205 | 0.0 | 0.0 | 0.00 | 0.00 | 0.00 | 49 | 1022.1 |
| 20260502051203 | 47 | 205 | 0.0 | 0.0 | 0.00 | 0.00 | 0.00 | 50 | 1022.1 |
| 20260502050704 | 48 | 205 | 0.0 | 0.0 | 0.00 | 0.00 | 0.00 | 50 | 1022.1 |
| 20260502050204 | 48 | 205 | 0.0 | 0.0 | 0.00 | 0.00 | 0.00 | 50 | 1022.2 |
| 20260502045704 | 48 | 205 | 0.0 | 0.0 | 0.00 | 0.00 | 0.00 | 49 | 1022.1 |
| 20260502045204 | 48 | 205 | 0.0 | 0.0 | 0.00 | 0.00 | 0.00 | 49 | 1022.0 |
| 20260502044704 | 48 | 205 | 0.0 | 0.0 | 0.00 | 0.00 | 0.00 | 49 | 1022.0 |
| 20260502044204 | 48 | 205 | 0.0 | 0.0 | 0.00 | 0.00 | 0.00 | 49 | 1022.0 |
| 20260502042704 | 49 | 205 | 0.0 | 0.0 | 0.00 | 0.00 | 0.00 | 48 | 1022.0 |
| 20260502042204 | 49 | 205 | 0.0 | 0.0 | 0.00 | 0.00 | 0.00 | 48 | 1021.9 |
| 20260502041704 | 49 | 205 | 0.0 | 0.0 | 0.00 | 0.00 | 0.00 | 48 | 1021.8 |
| 20260502040704 | 49 | 205 | 0.0 | 0.0 | 0.00 | 0.00 | 0.00 | 46 | 1021.7 |
| 20260502040203 | 50 | 205 | 0.0 | 0.0 | 0.00 | 0.00 | 0.00 | 46 | 1021.7 |
| 20260502035704 | 50 | 205 | 0.0 | 0.0 | 0.00 | 0.00 | 0.00 | 45 | 1021.6 |
| 20260502035204 | 50 | 205 | 0.0 | 0.0 | 0.00 | 0.00 | 0.00 | 44 | 1021.6 |
| 20260502034704 | 50 | 205 | 0.0 | 0.0 | 0.00 | 0.00 | 0.00 | 43 | 1021.5 |
| 20260502034204 | 50 | 205 | 0.0 | 0.0 | 0.00 | 0.00 | 0.00 | 43 | 1021.4 |
| 20260502033703 | 50 | 205 | 0.0 | 1.0 | 0.00 | 0.00 | 0.00 | 42 | 1021.3 |
| 20260502033204 | 51 | 205 | 0.0 | 2.0 | 0.00 | 0.00 | 0.00 | 40 | 1021.2 |
| 20260502032703 | 51 | 17 | 0.0 | 1.0 | 0.00 | 0.00 | 0.00 | 39 | 1021.2 |
| 20260502032204 | 51 | 17 | 0.0 | 0.0 | 0.00 | 0.00 | 0.00 | 37 | 1021.1 |
| 20260502031704 | 51 | 17 | 0.0 | 0.0 | 0.00 | 0.00 | 0.00 | 36 | 1021.0 |
| 20260502031204 | 52 | 17 | 0.0 | 0.0 | 0.00 | 0.00 | 0.00 | 34 | 1021.0 |
| 20260502030704 | 52 | 17 | 0.0 | 0.0 | 0.00 | 0.00 | 0.00 | 33 | 1020.9 |
| 20260502030204 | 52 | 17 | 0.0 | 0.0 | 0.00 | 0.00 | 0.00 | 33 | 1020.8 |
| 20260502025703 | 53 | 17 | 0.0 | 0.0 | 0.00 | 0.00 | 0.00 | 32 | 1020.8 |
| 20260502025203 | 53 | 17 | 0.0 | 0.0 | 0.00 | 0.00 | 0.00 | 31 | 1020.7 |
| 20260502024704 | 54 | 17 | 0.0 | 0.0 | 0.00 | 0.00 | 0.00 | 30 | 1020.6 |
| 20260502024204 | 54 | 17 | 0.0 | 0.0 | 0.00 | 0.00 | 0.00 | 30 | 1020.5 |
| 20260502023204 | 55 | 17 | 0.0 | 0.0 | 0.00 | 0.00 | 0.00 | 27 | 1020.4 |
| 20260502022704 | 55 | 17 | 0.0 | 0.0 | 0.00 | 0.00 | 0.00 | 26 | 1020.3 |
| 20260502022203 | 56 | 17 | 0.0 | 0.0 | 0.00 | 0.00 | 0.00 | 26 | 1020.2 |
| 20260502021205 | 57 | 17 | 0.0 | 0.0 | 0.00 | 0.00 | 0.00 | 24 | 1020.1 |
| 20260502015706 | 57 | 17 | 0.0 | 0.0 | 0.00 | 0.00 | 0.00 | 23 | 1020.0 |
| 20260502015206 | 57 | 17 | 0.0 | 1.0 | 0.00 | 0.00 | 0.00 | 22 | 1020.0 |
| 20260502014705 | 58 | 17 | 1.0 | 3.0 | 0.00 | 0.00 | 0.00 | 22 | 1019.9 |
| 20260502014205 | 58 | 17 | 1.0 | 5.0 | 0.00 | 0.00 | 0.00 | 21 | 1019.9 |
| 20260502013706 | 58 | 5 | 2.0 | 6.0 | 0.00 | 0.00 | 0.00 | 20 | 1019.8 |
| 20260502013206 | 58 | 12 | 1.0 | 3.0 | 0.00 | 0.00 | 0.00 | 21 | 1019.7 |
| 20260502012706 | 59 | 67 | 1.0 | 2.0 | 0.00 | 0.00 | 0.00 | 21 | 1019.7 |
| 20260502011706 | 59 | 67 | 1.0 | 2.0 | 0.00 | 0.00 | 0.00 | 20 | 1019.6 |
| 20260502011205 | 60 | 67 | 1.0 | 3.0 | 0.00 | 0.00 | 0.00 | 20 | 1019.6 |
| 20260502010705 | 60 | 13 | 0.0 | 3.0 | 0.00 | 0.00 | 0.00 | 19 | 1019.5 |
| 20260502005705 | 60 | 267 | 0.0 | 3.0 | 0.00 | 0.00 | 0.00 | 19 | 1019.4 |
| 20260502005205 | 61 | 267 | 1.0 | 3.0 | 0.00 | 0.00 | 0.00 | 18 | 1019.4 |
| 20260502004705 | 62 | 265 | 1.0 | 3.0 | 0.00 | 0.00 | 0.00 | 19 | 1019.4 |
| 20260502004205 | 62 | 265 | 0.0 | 3.0 | 0.00 | 0.00 | 0.00 | 18 | 1019.4 |
| 20260502003705 | 62 | 38 | 2.0 | 6.0 | 0.00 | 0.00 | 0.00 | 18 | 1019.4 |
| 20260502003205 | 62 | 203 | 1.0 | 2.0 | 0.00 | 0.00 | 0.00 | 18 | 1019.4 |
| 20260502002205 | 62 | 200 | 0.0 | 3.0 | 0.00 | 0.00 | 0.00 | 18 | 1019.4 |
| 20260502001705 | 62 | 290 | 1.0 | 3.0 | 0.00 | 0.00 | 0.00 | 18 | 1019.4 |
| 20260502001206 | 62 | 355 | 0.0 | 3.0 | 0.00 | 0.00 | 0.00 | 18 | 1019.5 |
| 20260502000705 | 62 | 90 | 1.0 | 3.0 | 0.00 | 0.00 | 0.00 | 18 | 1019.4 |
| 20260502000206 | 62 | 106 | 1.0 | 3.0 | 0.00 | 0.00 | 0.00 | 19 | 1019.4 |
| 20260501235706 | 62 | 92 | 2.0 | 5.0 | 0.00 | 0.00 | 0.00 | 18 | 1019.4 |
| 20260501235205 | 62 | 71 | 3.0 | 7.0 | 0.00 | 0.00 | 0.00 | 18 | 1019.4 |
| 20260501234705 | 62 | 356 | 5.0 | 12.0 | 0.00 | 0.00 | 0.00 | 18 | 1019.4 |
| 20260501234205 | 63 | 343 | 2.0 | 5.0 | 0.00 | 0.00 | 0.00 | 18 | 1019.3 |
| 20260501233706 | 63 | 18 | 2.0 | 5.0 | 0.00 | 0.00 | 0.00 | 19 | 1019.3 |
| 20260501233205 | 62 | 2 | 3.0 | 8.0 | 0.00 | 0.00 | 0.00 | 18 | 1019.3 |
| 20260501232705 | 62 | 72 | 2.0 | 7.0 | 0.00 | 0.00 | 0.00 | 18 | 1019.4 |
| 20260501232205 | 62 | 53 | 2.0 | 6.0 | 0.00 | 0.00 | 0.00 | 18 | 1019.4 |
| 20260501231705 | 62 | 355 | 1.0 | 9.0 | 0.00 | 0.00 | 0.00 | 19 | 1019.4 |
| 20260501231205 | 62 | 2 | 3.0 | 9.0 | 0.00 | 0.00 | 0.00 | 19 | 1019.4 |
| 20260501230705 | 62 | 5 | 5.0 | 12.0 | 0.00 | 0.00 | 0.00 | 19 | 1019.4 |
| 20260501230205 | 63 | 33 | 3.0 | 8.0 | 0.00 | 0.00 | 0.00 | 20 | 1019.3 |
| 20260501225705 | 63 | 18 | 3.0 | 10.0 | 0.00 | 0.00 | 0.00 | 20 | 1019.3 |
| 20260501225205 | 63 | 36 | 3.0 | 8.0 | 0.00 | 0.00 | 0.00 | 20 | 1019.3 |
| 20260501224205 | 62 | 136 | 3.0 | 8.0 | 0.00 | 0.00 | 0.00 | 19 | 1019.2 |
| 20260501223705 | 62 | 5 | 2.0 | 5.0 | 0.00 | 0.00 | 0.00 | 18 | 1019.3 |
| 20260501223205 | 62 | 191 | 2.0 | 3.0 | 0.00 | 0.00 | 0.00 | 18 | 1019.3 |
| 20260501222705 | 62 | 344 | 2.0 | 9.0 | 0.00 | 0.00 | 0.00 | 20 | 1019.4 |
| 20260501222205 | 62 | 7 | 3.0 | 8.0 | 0.00 | 0.00 | 0.00 | 20 | 1019.4 |
| 20260501221204 | 62 | 57 | 4.0 | 12.0 | 0.00 | 0.00 | 0.00 | 20 | 1019.4 |
| 20260501220705 | 62 | 131 | 1.0 | 9.0 | 0.00 | 0.00 | 0.00 | 20 | 1019.4 |
| 20260501220205 | 63 | 41 | 3.0 | 9.0 | 0.00 | 0.00 | 0.00 | 19 | 1019.4 |
| 20260501215705 | 62 | 104 | 1.0 | 6.0 | 0.00 | 0.00 | 0.00 | 20 | 1019.5 |
| 20260501215205 | 62 | 86 | 1.0 | 2.0 | 0.00 | 0.00 | 0.00 | 22 | 1019.5 |
| 20260501214205 | 60 | 15 | 1.0 | 9.0 | 0.00 | 0.00 | 0.00 | 21 | 1019.6 |
| 20260501213705 | 60 | 47 | 3.0 | 10.0 | 0.00 | 0.00 | 0.00 | 21 | 1019.8 |
| 20260501213205 | 60 | 43 | 6.0 | 12.0 | 0.00 | 0.00 | 0.00 | 21 | 1019.8 |
| 20260501212705 | 61 | 71 | 6.0 | 13.0 | 0.00 | 0.00 | 0.00 | 20 | 1019.8 |
| 20260501212205 | 61 | 54 | 2.0 | 3.0 | 0.00 | 0.00 | 0.00 | 22 | 1019.8 |
| 20260501211705 | 61 | 314 | 1.0 | 3.0 | 0.00 | 0.00 | 0.00 | 23 | 1019.9 |
| 20260501210205 | 60 | 24 | 3.0 | 7.0 | 0.00 | 0.00 | 0.00 | 22 | 1020.0 |
| 20260501205705 | 60 | 65 | 3.0 | 7.0 | 0.00 | 0.00 | 0.00 | 22 | 1020.1 |
| 20260501205205 | 61 | 17 | 3.0 | 9.0 | 0.00 | 0.00 | 0.00 | 22 | 1020.1 |
| 20260501204705 | 62 | 169 | 1.0 | 7.0 | 0.00 | 0.00 | 0.00 | 24 | 1020.1 |
| 20260501204205 | 62 | 101 | 4.0 | 12.0 | 0.00 | 0.00 | 0.00 | 22 | 1020.0 |
| 20260501202705 | 63 | 9 | 3.0 | 9.0 | 0.00 | 0.00 | 0.00 | 23 | 1020.2 |
| 20260501202205 | 62 | 39 | 2.0 | 12.0 | 0.00 | 0.00 | 0.00 | 23 | 1020.2 |